[[{"header":{"parameterUnit":"m.s-1","parameterCategory":1,"la1":30.2991,"la2":30.254,"lo1":-89.0895,"lo2":-89.0444,"dy":0.0017,"dx":0.0017,"nx":28,"ny":28,"refTime":"2023-10-07T03:00:00:Z","depth":0,"parameterNumber":2,"parameterNumberName":"U-component_of_WINDS"},"data":[0,0,0,0,0,0,0,0,0,0,0,0,0,0,0,0,0,0,0,0,0,0,0,0,0,0,0,0,0,0,0,0,0,0,0,0,0,0,0,0,0,0,0,0,0,0,0,0,0,0,0,0,0,0,0,0,0,0,-0.1648,-0.1648,0,-0.1636,-0.1636,-0.1636,-0.1609,-0.1608,-0.1608,-0.1607,-0.1594,-0.1595,-0.1595,0,0,0,0,0,0,0,0,0,0,0,0,0,-0.1648,-0.1648,-0.1648,-0.1648,-0.1648,-0.1636,-0.1636,-0.1636,-0.1609,-0.1608,-0.1608,-0.1607,-0.1594,-0.1595,-0.1595,0,0,0,0,0,0,0,0,0,0,0,0,0,-0.1643,-0.1648,-0.1648,-0.1633,-0.1632,-0.1636,-0.1636,-0.1636,-0.1609,-0.1608,-0.1607,-0.1607,-0.1594,-0.1594,-0.1595,-0.1613,0,0,-0.1596,-0.1596,0,0,0,0,0,0,0,0,-0.1643,-0.1643,-0.1636,-0.1634,-0.1633,-0.1623,-0.1631,-0.1628,-0.1609,-0.1618,-0.1607,-0.1606,-0.1605,-0.1604,-0.1603,-0.1612,-0.1612,-0.1596,-0.1596,-0.1596,-0.1596,0,0,0,0,0,0,0,-0.1644,-0.1644,-0.1643,-0.1636,-0.1634,-0.1627,-0.1625,-0.163,-0.1616,-0.1617,-0.1615,-0.1614,-0.1604,-0.1603,-0.1603,-0.1611,-0.1596,-0.1596,-0.1596,-0.1596,-0.1633,-0.1634,0,0,0,0,0,0,-0.1646,-0.1644,-0.1644,-0.1643,-0.1636,-0.1627,-0.1626,-0.1627,-0.1616,-0.1613,-0.1614,-0.1613,-0.1603,-0.1603,-0.1602,-0.1622,-0.1596,-0.1596,-0.1596,-0.1632,-0.1633,-0.1634,0,0,0,0,0,0,-0.1647,-0.1647,-0.1644,-0.1643,-0.1642,-0.1628,-0.163,-0.1627,-0.1627,-0.1614,-0.1611,-0.1617,-0.1603,-0.1602,-0.161,-0.1622,-0.1596,-0.1596,-0.1631,-0.1633,-0.1634,-0.1663,0,0,0,0,0,0,-0.1647,-0.1647,-0.1654,-0.1643,-0.1642,-0.1653,-0.1631,-0.1628,-0.1627,-0.1625,-0.1615,-0.1613,-0.1602,-0.161,-0.161,-0.1621,-0.1597,-0.163,-0.1632,-0.1633,-0.1661,-0.1665,-0.1668,0,0,0,0,0,-0.1647,-0.1663,-0.1654,-0.1655,-0.1651,-0.1654,-0.1653,-0.164,-0.1628,-0.1635,-0.1627,-0.1613,-0.162,-0.1611,-0.1611,-0.1623,-0.163,-0.1632,-0.1633,-0.1659,-0.1664,-0.1668,0,0,0,0,0,0,-0.1675,-0.1661,-0.1652,-0.1665,-0.1661,-0.1649,-0.1657,-0.1646,-0.1644,-0.1642,-0.1625,-0.1624,-0.1634,-0.1629,-0.1619,-0.1639,-0.1623,-0.1625,-0.1642,-0.1647,-0.165,-0.1652,-0.1597,0,0,0,0,0,-0.1683,-0.1687,-0.1674,-0.1687,-0.1685,-0.1672,-0.1672,-0.1662,-0.1657,-0.1655,-0.1647,-0.1643,-0.1644,-0.1645,-0.1645,-0.166,-0.1657,-0.1667,-0.1671,-0.1674,-0.1677,-0.1683,-0.1688,-0.1641,-0.1641,-0.164,0,0,-0.1699,-0.1692,-0.1695,-0.1692,-0.1688,-0.1692,-0.167,-0.1675,-0.1678,-0.1656,-0.1663,-0.1657,-0.1651,-0.1662,-0.1667,-0.1658,-0.1689,-0.1677,-0.1679,-0.168,-0.1686,-0.169,-0.1694,-0.1642,-0.1642,-0.1641,0,0,-0.1731,-0.1726,-0.1736,-0.1732,-0.1725,-0.1715,-0.1718,-0.1708,-0.1703,-0.171,-0.1693,-0.1695,-0.1698,-0.1694,-0.1692,-0.1721,-0.1708,-0.1721,-0.1741,-0.1748,-0.1752,-0.1755,-0.1765,-0.1769,-0.1723,-0.1723,-0.1723,0,-0.1752,-0.1758,-0.1742,-0.1748,-0.1747,-0.1727,-0.1737,-0.1733,-0.1727,-0.1726,-0.1717,-0.1718,-0.1713,-0.1723,-0.173,-0.1729,-0.1731,-0.1723,-0.1752,-0.1756,-0.1758,-0.1768,-0.1772,-0.1725,-0.1725,-0.1724,-0.1724,0,-0.1784,-0.1788,-0.1796,-0.1791,-0.179,-0.1798,-0.1784,-0.1785,-0.1775,-0.1766,-0.1773,-0.1765,-0.1763,-0.1765,-0.1755,-0.1773,-0.1768,-0.1756,-0.1739,-0.1765,-0.1773,-0.1777,-0.1727,-0.1726,-0.1726,-0.1726,0,0,-0.1835,-0.1819,-0.1823,-0.182,-0.181,-0.1813,-0.1819,-0.1817,-0.1818,-0.1814,-0.1819,-0.182,-0.1809,-0.1807,-0.1796,-0.1802,-0.1825,-0.1789,-0.1788,-0.1796,-0.1844,-0.1854,-0.1858,-0.1816,-0.1817,-0.1817,-0.1844,0,-0.1865,-0.1875,-0.1861,-0.1874,-0.1877,-0.1857,-0.1863,-0.1857,-0.1849,-0.185,-0.1841,-0.1842,-0.1827,-0.1825,-0.183,-0.1821,-0.1834,-0.1819,-0.182,-0.1821,-0.1823,-0.1863,-0.1873,-0.1899,-0.1848,-0.1848,-0.1849,0,-0.1901,-0.1899,-0.1912,-0.1901,-0.1902,-0.1907,-0.1903,-0.1905,-0.1897,-0.1891,-0.1888,-0.1875,-0.188,-0.1863,-0.1869,-0.1859,-0.1859,-0.1854,-0.1855,-0.1855,-0.1837,-0.1864,-0.1907,-0.1911,-0.1854,-0.1853,-0.1853,0,-0.1937,-0.1937,-0.1945,-0.1943,-0.193,-0.1934,-0.1928,-0.1921,-0.192,-0.1916,-0.1916,-0.1913,-0.1911,-0.1909,-0.1895,-0.1885,-0.1903,-0.1886,-0.1898,-0.1898,-0.1904,-0.1904,-0.1948,-0.1903,-0.1903,-0.1902,-0.1902,0,-0.1972,-0.1982,-0.1961,-0.1966,-0.1975,-0.1958,-0.1968,-0.1961,-0.1953,-0.1956,-0.1939,-0.1942,-0.1923,-0.1924,-0.1913,-0.1919,-0.1919,-0.1913,-0.1911,-0.1915,-0.1916,-0.1916,-0.1914,-0.1903,-0.1903,-0.1903,-0.1903,0,-0.2015,-0.2001,-0.2009,-0.1995,-0.1992,-0.2,-0.1988,-0.1992,-0.1982,-0.1986,-0.1985,-0.197,-0.197,-0.1956,-0.1953,-0.1945,-0.1956,-0.195,-0.1959,-0.1957,-0.1971,-0.197,-0.2016,-0.2022,-0.1973,-0.1973,-0.1974,0,-0.2039,-0.2045,-0.2032,-0.2033,-0.2028,-0.203,-0.2028,-0.2012,-0.2011,-0.2003,-0.2008,-0.2006,-0.2004,-0.2004,-0.1993,-0.199,-0.1984,-0.2,-0.1983,-0.1988,-0.1984,-0.1984,-0.1985,-0.2004,-0.2005,-0.2005,-0.2005,0,-0.2082,-0.2075,-0.2074,-0.2071,-0.207,-0.2067,-0.2062,-0.2063,-0.2045,-0.2045,-0.2045,-0.2043,-0.2039,-0.2038,-0.2033,-0.2027,-0.2013,-0.2011,-0.2013,-0.2019,-0.2024,-0.2022,-0.1969,-0.201,-0.2009,-0.2009,-0.2009,-0.2009,-0.2116,-0.2121,-0.2112,-0.2112,-0.2106,-0.2102,-0.2105,-0.2095,-0.2094,-0.209,-0.208,-0.2081,-0.2073,-0.2064,-0.2059,-0.206,-0.2051,-0.2055,-0.2057,-0.2058,-0.2061,-0.2023,-0.2059,-0.2058,-0.2058,-0.2058,-0.2058,0,-0.2159,-0.2152,-0.2152,-0.2146,-0.2145,-0.2132,-0.2126,-0.2126,-0.2127,-0.212,-0.2118,-0.2117,-0.2115,-0.2103,-0.21,-0.2102,-0.2096,-0.2102,-0.2102,-0.2101,-0.2068,-0.2066,-0.2107,-0.2107,-0.2107,-0.2107,-0.2107,-0.2107,-0.2182,-0.2189,-0.218,-0.2184,-0.2177,-0.2178,-0.2175,-0.2171,-0.2165,-0.2165,-0.2163,-0.2155,-0.2146,-0.2141,-0.2139,-0.2135,-0.2135,-0.2143,-0.2138,-0.2108,-0.2103,-0.2099,-0.2097,-0.2143,-0.2143,-0.217,-0.217,-0.217]},{"header":{"parameterUnit":"m.s-1","parameterCategory":1,"la1":30.2991,"la2":30.254,"lo1":-89.0895,"lo2":-89.0444,"dy":0.0017,"dx":0.0017,"nx":28,"ny":28,"refTime":"2023-10-07T03:00:00:Z","depth":0,"parameterNumber":3,"parameterNumberName":"V-component_of_WINDS"},"data":[0,0,0,0,0,0,0,0,0,0,0,0,0,0,0,0,0,0,0,0,0,0,0,0,0,0,0,0,0,0,0,0,0,0,0,0,0,0,0,0,0,0,0,0,0,0,0,0,0,0,0,0,0,0,0,0,0,0,-6.443,-6.4431,0,-6.4519,-6.452,-6.4521,-6.4506,-6.4505,-6.4503,-6.4502,-6.4586,-6.459,-6.4594,0,0,0,0,0,0,0,0,0,0,0,0,0,-6.4244,-6.4247,-6.443,-6.4431,-6.4432,-6.4519,-6.452,-6.4521,-6.4506,-6.4504,-6.4503,-6.4501,-6.4585,-6.459,-6.4594,0,0,0,0,0,0,0,0,0,0,0,0,0,-6.4328,-6.4249,-6.443,-6.4435,-6.4437,-6.4518,-6.452,-6.4521,-6.4507,-6.4504,-6.4502,-6.45,-6.4584,-6.4589,-6.4595,-6.4674,0,0,-6.4611,-6.4614,0,0,0,0,0,0,0,0,-6.4323,-6.4335,-6.4434,-6.4435,-6.4437,-6.4499,-6.4485,-6.4572,-6.4507,-6.448,-6.4502,-6.4499,-6.4559,-6.4566,-6.4588,-6.4678,-6.4682,-6.4612,-6.4615,-6.4618,-6.4619,0,0,0,0,0,0,0,-6.4317,-6.4331,-6.4465,-6.4435,-6.4437,-6.4432,-6.4442,-6.4502,-6.4531,-6.4482,-6.4481,-6.4492,-6.4559,-6.4582,-6.459,-6.4683,-6.4612,-6.4617,-6.462,-6.4622,-6.4845,-6.4848,0,0,0,0,0,0,-6.431,-6.4326,-6.4462,-6.4468,-6.4373,-6.4438,-6.4448,-6.4481,-6.453,-6.4536,-6.4494,-6.4491,-6.4574,-6.4583,-6.4592,-6.469,-6.4618,-6.4623,-6.4626,-6.4842,-6.4846,-6.4848,0,0,0,0,0,0,-6.4307,-6.4323,-6.4458,-6.4397,-6.4414,-6.4443,-6.4481,-6.4484,-6.4507,-6.4539,-6.4544,-6.4513,-6.4573,-6.4585,-6.4655,-6.4693,-6.4625,-6.463,-6.4839,-6.4843,-6.4847,-6.4886,0,0,0,0,0,0,-6.4301,-6.4321,-6.4353,-6.4398,-6.4417,-6.4521,-6.4483,-6.4488,-6.4518,-6.4515,-6.4558,-6.4563,-6.4572,-6.4647,-6.466,-6.4699,-6.4634,-6.4836,-6.4841,-6.4846,-6.4881,-6.489,-6.4898,0,0,0,0,0,-6.4295,-6.4358,-6.4354,-6.4371,-6.4457,-6.4523,-6.4534,-6.4544,-6.4521,-6.4552,-6.4573,-6.4562,-6.4687,-6.4654,-6.4669,-6.471,-6.4834,-6.484,-6.4845,-6.4877,-6.4889,-6.4898,0,0,0,0,0,0,-6.4314,-6.4364,-6.436,-6.4441,-6.4478,-6.452,-6.456,-6.4556,-6.4599,-6.4594,-6.4604,-6.4613,-6.4685,-6.4704,-6.4667,-6.4791,-6.4757,-6.4766,-6.4776,-6.4787,-6.4795,-6.4789,-6.4639,0,0,0,0,0,-6.4328,-6.4379,-6.4419,-6.4486,-6.4506,-6.453,-6.4559,-6.4564,-6.4602,-6.4617,-6.4643,-6.4679,-6.4727,-6.4758,-6.4803,-6.4884,-6.4893,-6.492,-6.4929,-6.4935,-6.4943,-6.4989,-6.5001,-6.4868,-6.4868,-6.4868,0,0,-6.4357,-6.439,-6.4421,-6.4491,-6.4521,-6.4572,-6.4543,-6.4598,-6.4636,-6.4625,-6.4694,-6.4714,-6.4755,-6.4832,-6.4866,-6.485,-6.4983,-6.4943,-6.4948,-6.4952,-6.4996,-6.5009,-6.502,-6.4872,-6.4871,-6.487,0,0,-6.4436,-6.4466,-6.4527,-6.4558,-6.4604,-6.462,-6.4635,-6.4679,-6.4693,-6.4763,-6.4756,-6.4801,-6.4882,-6.4912,-6.4938,-6.5032,-6.5023,-6.5046,-6.5091,-6.5136,-6.5146,-6.5156,-6.519,-6.5202,-6.5054,-6.5054,-6.5054,0,-6.4465,-6.4544,-6.4557,-6.4615,-6.4646,-6.4641,-6.4702,-6.4731,-6.4788,-6.4809,-6.4791,-6.4895,-6.4922,-6.5006,-6.503,-6.505,-6.5067,-6.5041,-6.5144,-6.5154,-6.5162,-6.5195,-6.5208,-6.5057,-6.5056,-6.5056,-6.5056,0,-6.4578,-6.4634,-6.4676,-6.4736,-6.4772,-6.483,-6.4851,-6.4886,-6.4889,-6.4907,-6.4978,-6.5011,-6.5064,-6.5084,-6.5086,-6.517,-6.5158,-6.5142,-6.5108,-6.5178,-6.5209,-6.5221,-6.506,-6.5059,-6.5058,-6.5058,0,0,-6.467,-6.4739,-6.4754,-6.4782,-6.4834,-6.4877,-6.4935,-6.499,-6.502,-6.506,-6.5109,-6.518,-6.5166,-6.5196,-6.5201,-6.524,-6.5314,-6.5219,-6.522,-6.5236,-6.5409,-6.5421,-6.5436,-6.5309,-6.5311,-6.5313,-6.5406,0,-6.4755,-6.4861,-6.4876,-6.4969,-6.5021,-6.5018,-6.5069,-6.5106,-6.5125,-6.5171,-6.519,-6.5241,-6.5218,-6.5236,-6.5275,-6.5297,-6.5349,-6.529,-6.5354,-6.5356,-6.5344,-6.5452,-6.5465,-6.555,-6.5418,-6.542,-6.5421,0,-6.4867,-6.4915,-6.5014,-6.5062,-6.5084,-6.513,-6.5182,-6.5226,-6.5268,-6.5279,-6.5314,-6.5315,-6.5375,-6.5339,-6.5422,-6.5382,-6.5409,-6.5424,-6.5428,-6.5434,-6.5393,-6.5461,-6.5578,-6.5591,-6.544,-6.5439,-6.5438,0,-6.4926,-6.5014,-6.5085,-6.5109,-6.5166,-6.5199,-6.5223,-6.5264,-6.5296,-6.5341,-6.5363,-6.5413,-6.5441,-6.5479,-6.5494,-6.5467,-6.5577,-6.5542,-6.5587,-6.5587,-6.561,-6.5608,-6.5733,-6.5627,-6.5627,-6.5627,-6.5626,0,-6.5019,-6.508,-6.5113,-6.5157,-6.5225,-6.5241,-6.5308,-6.5331,-6.5368,-6.5416,-6.5415,-6.546,-6.5477,-6.5524,-6.5536,-6.5603,-6.5615,-6.5625,-6.5628,-6.5626,-6.5625,-6.5643,-6.5638,-6.563,-6.5629,-6.5629,-6.5628,0,-6.5095,-6.512,-6.5198,-6.5247,-6.526,-6.5309,-6.535,-6.5392,-6.5412,-6.5472,-6.5487,-6.5517,-6.5573,-6.5592,-6.5658,-6.5666,-6.5745,-6.5742,-6.5732,-6.5732,-6.5777,-6.5773,-6.5918,-6.5938,-6.5819,-6.582,-6.5821,0,-6.5153,-6.52,-6.5256,-6.5289,-6.5316,-6.5369,-6.5404,-6.5422,-6.5457,-6.551,-6.5546,-6.5602,-6.5648,-6.5737,-6.5764,-6.5815,-6.5813,-6.5861,-6.5821,-6.5818,-6.5815,-6.5812,-6.5817,-6.5868,-6.5869,-6.587,-6.5871,0,-6.5253,-6.5264,-6.5315,-6.5371,-6.5413,-6.5457,-6.5499,-6.5526,-6.555,-6.559,-6.5649,-6.5684,-6.5754,-6.581,-6.5863,-6.5887,-6.5883,-6.5884,-6.5897,-6.5896,-6.5888,-6.5894,-6.5753,-6.588,-6.5879,-6.5879,-6.5878,-6.5878,-6.5323,-6.5366,-6.5412,-6.5469,-6.5504,-6.5545,-6.5588,-6.5614,-6.5664,-6.5724,-6.5731,-6.5795,-6.5837,-6.5908,-6.5935,-6.5984,-6.597,-6.5989,-6.5994,-6.5999,-6.6003,-6.5881,-6.5993,-6.5993,-6.5993,-6.5993,-6.5992,0,-6.5424,-6.5455,-6.5507,-6.5569,-6.5614,-6.5609,-6.5657,-6.5694,-6.5751,-6.5792,-6.5838,-6.5906,-6.5961,-6.5993,-6.6047,-6.6081,-6.608,-6.6094,-6.6092,-6.6098,-6.6011,-6.5995,-6.6094,-6.6094,-6.6094,-6.6094,-6.6094,-6.6094,-6.5482,-6.5555,-6.5572,-6.5663,-6.5692,-6.5757,-6.5784,-6.5822,-6.5855,-6.5932,-6.5978,-6.6,-6.6038,-6.6095,-6.6145,-6.6153,-6.6173,-6.6189,-6.6196,-6.6114,-6.6104,-6.6094,-6.6078,-6.6193,-6.6193,-6.6278,-6.6279,-6.6279]}]]